Hourly Weather Chalisgaon

Today, 14 June, Monday

Time Temperature Precipitation Wind Pressure Humidity
00:00 +32°C° 0.1 mm 6 mps 722 mmHg 71%
01:00 +30°C° 0.1 mm 5 mps 722 mmHg 72%
02:00 +30°C° 0.1 mm 5 mps 722 mmHg 74%
03:00 +30°C° 0 mm 4 mps 722 mmHg 74%
04:00 +29°C° 0 mm 4 mps 722 mmHg 75%
05:00 +29°C° 0 mm 4 mps 722 mmHg 75%
06:00 +30°C° 0 mm 4 mps 722 mmHg 72%
07:00 +30°C° 0 mm 4 mps 723 mmHg 69%
08:00 +32°C° 0 mm 4 mps 723 mmHg 67%
09:00 +33°C° 0.1 mm 4 mps 723 mmHg 62%
10:00 +34°C° 0.1 mm 4 mps 723 mmHg 57%
11:00 +35°C° 0 mm 4 mps 723 mmHg 53%
12:00 +36°C° 0.1 mm 4 mps 722 mmHg 50%
13:00 +36°C° 0.1 mm 4 mps 722 mmHg 47%
14:00 +37°C° 0.1 mm 4 mps 721 mmHg 44%
15:00 +36°C° 0 mm 4 mps 721 mmHg 46%
16:00 +36°C° 0 mm 4 mps 721 mmHg 48%
17:00 +36°C° 0 mm 3 mps 720 mmHg 49%
18:00 +35°C° 0.1 mm 4 mps 721 mmHg 53%
19:00 +34°C° 0.1 mm 5 mps 721 mmHg 56%
20:00 +34°C° 0.1 mm 6 mps 721 mmHg 59%
21:00 +33°C° 0.1 mm 6 mps 722 mmHg 63%
22:00 +32°C° 0.1 mm 6 mps 722 mmHg 67%
23:00 +30°C° 0.1 mm 6 mps 722 mmHg 71%

Tomorrow, 15 June, Tuesday

Time Temperature Precipitation Wind Pressure Humidity
00:00 +30°C° 0 mm 6 mps 721 mmHg 73%
01:00 +29°C° 0 mm 6 mps 721 mmHg 75%
02:00 +29°C° 0 mm 6 mps 720 mmHg 77%
03:00 +28°C° 0 mm 5 mps 721 mmHg 77%
04:00 +28°C° 0 mm 5 mps 721 mmHg 78%
05:00 +28°C° 0 mm 4 mps 721 mmHg 79%
06:00 +29°C° 0 mm 4 mps 721 mmHg 76%
07:00 +29°C° 0 mm 5 mps 722 mmHg 72%
08:00 +30°C° 0 mm 5 mps 722 mmHg 69%
09:00 +32°C° 0 mm 5 mps 722 mmHg 63%
10:00 +34°C° 0 mm 5 mps 722 mmHg 57%
11:00 +35°C° 0 mm 5 mps 722 mmHg 51%
12:00 +36°C° 0 mm 5 mps 721 mmHg 48%
13:00 +38°C° 0 mm 6 mps 720 mmHg 45%
14:00 +39°C° 0 mm 6 mps 720 mmHg 41%
15:00 +38°C° 0 mm 7 mps 720 mmHg 44%
16:00 +36°C° 0 mm 7 mps 720 mmHg 46%
17:00 +37°C° 0 mm 8 mps 720 mmHg 49%
18:00 +35°C° 0.5 mm 8 mps 720 mmHg 53%
19:00 +33°C° 0.5 mm 8 mps 721 mmHg 58%
20:00 +32°C° 0.5 mm 7 mps 721 mmHg 63%
21:00 +32°C° 0.2 mm 7 mps 721 mmHg 66%
22:00 +30°C° 0.2 mm 7 mps 722 mmHg 69%
23:00 +29°C° 0.2 mm 7 mps 722 mmHg 72%

Day after tomorrow, 16 June, Wednesday

Time Temperature Precipitation Wind Pressure Humidity
00:00 +29°C° 0 mm 7 mps 722 mmHg 73%
01:00 +28°C° 0 mm 6 mps 721 mmHg 73%
02:00 +28°C° 0 mm 6 mps 721 mmHg 74%
03:00 +28°C° 0 mm 6 mps 721 mmHg 73%
04:00 +28°C° 0 mm 6 mps 721 mmHg 73%
05:00 +28°C° 0 mm 6 mps 721 mmHg 72%
06:00 +29°C° 0 mm 6 mps 722 mmHg 70%
07:00 +29°C° 0 mm 6 mps 723 mmHg 68%
08:00 +30°C° 0 mm 7 mps 723 mmHg 66%
09:00 +32°C° 0 mm 7 mps 723 mmHg 62%
10:00 +33°C° 0 mm 7 mps 723 mmHg 57%
11:00 +34°C° 0 mm 8 mps 723 mmHg 53%
12:00 +35°C° 0 mm 7 mps 722 mmHg 51%
13:00 +35°C° 0 mm 7 mps 722 mmHg 49%
14:00 +36°C° 0 mm 6 mps 721 mmHg 47%
15:00 +35°C° 0 mm 6 mps 721 mmHg 48%
16:00 +35°C° 0 mm 7 mps 721 mmHg 49%
17:00 +35°C° 0 mm 7 mps 721 mmHg 50%
18:00 +34°C° 0 mm 7 mps 722 mmHg 54%
19:00 +33°C° 0 mm 7 mps 722 mmHg 58%
20:00 +32°C° 0 mm 7 mps 723 mmHg 62%
21:00 +32°C° 0 mm 7 mps 723 mmHg 64%
22:00 +30°C° 0 mm 6 mps 723 mmHg 66%
23:00 +30°C° 0 mm 6 mps 724 mmHg 68%

17 June, Thursday

Time Temperature Precipitation Wind Pressure Humidity
00:00 +29°C° 0 mm 5 mps 723 mmHg 69%
01:00 +29°C° 0 mm 5 mps 723 mmHg 71%
02:00 +29°C° 0 mm 5 mps 722 mmHg 73%
03:00 +28°C° 0 mm 5 mps 723 mmHg 74%
04:00 +28°C° 0 mm 4 mps 723 mmHg 75%
05:00 +28°C° 0 mm 4 mps 723 mmHg 76%
06:00 +29°C° 0 mm 5 mps 723 mmHg 72%
07:00 +30°C° 0 mm 5 mps 724 mmHg 68%
08:00 +30°C° 0 mm 6 mps 724 mmHg 64%
09:00 +32°C° 0 mm 6 mps 724 mmHg 59%
10:00 +34°C° 0 mm 6 mps 724 mmHg 55%
11:00 +35°C° 0 mm 7 mps 724 mmHg 50%
12:00 +35°C° 0 mm 7 mps 723 mmHg 49%
13:00 +35°C° 0 mm 7 mps 723 mmHg 47%
14:00 +36°C° 0 mm 7 mps 722 mmHg 46%
15:00 +36°C° 0 mm 7 mps 722 mmHg 46%
16:00 +35°C° 0 mm 7 mps 722 mmHg 47%
17:00 +35°C° 0 mm 7 mps 722 mmHg 47%
18:00 +34°C° 0 mm 7 mps 723 mmHg 52%
19:00 +33°C° 0 mm 7 mps 723 mmHg 56%
20:00 +32°C° 0 mm 6 mps 724 mmHg 61%
21:00 +30°C° 0 mm 6 mps 724 mmHg 63%
22:00 +30°C° 0 mm 6 mps 724 mmHg 65%
23:00 +29°C° 0 mm 6 mps 724 mmHg 67%

18 June, Friday

Time Temperature Precipitation Wind Pressure Humidity
00:00 +29°C° 0 mm 5 mps 724 mmHg 69%
01:00 +29°C° 0 mm 5 mps 724 mmHg 70%
02:00 +28°C° 0 mm 4 mps 723 mmHg 71%
03:00 +28°C° 0 mm 4 mps 723 mmHg 72%
04:00 +28°C° 0 mm 4 mps 723 mmHg 74%
05:00 +28°C° 0 mm 4 mps 724 mmHg 75%
06:00 +28°C° 0 mm 5 mps 724 mmHg 70%
07:00 +29°C° 0 mm 5 mps 724 mmHg 66%
08:00 +30°C° 0 mm 6 mps 725 mmHg 62%
09:00 +32°C° 0 mm 6 mps 725 mmHg 57%
10:00 +34°C° 0 mm 6 mps 725 mmHg 51%
11:00 +35°C° 0 mm 6 mps 725 mmHg 46%
12:00 +36°C° 0 mm 6 mps 724 mmHg 44%
13:00 +36°C° 0 mm 6 mps 724 mmHg 42%
14:00 +36°C° 0 mm 6 mps 723 mmHg 40%
15:00 +36°C° 0.1 mm 6 mps 723 mmHg 42%
16:00 +35°C° 0.1 mm 7 mps 723 mmHg 44%
17:00 +35°C° 0.1 mm 7 mps 724 mmHg 47%
18:00 +34°C° 0 mm 7 mps 724 mmHg 50%
19:00 +33°C° 0 mm 7 mps 724 mmHg 53%
20:00 +32°C° 0 mm 7 mps 725 mmHg 56%
21:00 +32°C° 0 mm 7 mps 725 mmHg 60%
22:00 +30°C° 0 mm 7 mps 725 mmHg 63%
23:00 +29°C° 0 mm 6 mps 726 mmHg 67%

19 June, Saturday

Time Temperature Precipitation Wind Pressure Humidity
00:00 +29°C° 0 mm 6 mps 725 mmHg 68%
01:00 +29°C° 0 mm 6 mps 725 mmHg 69%
02:00 +28°C° 0 mm 5 mps 725 mmHg 70%
03:00 +28°C° 0 mm 5 mps 725 mmHg 71%
04:00 +28°C° 0 mm 4 mps 725 mmHg 72%
05:00 +27°C° 0 mm 4 mps 725 mmHg 74%
06:00 +28°C° 0 mm 4 mps 725 mmHg 70%
07:00 +29°C° 0 mm 5 mps 726 mmHg 66%
08:00 +30°C° 0 mm 5 mps 726 mmHg 62%
09:00 +33°C° 0 mm 5 mps 726 mmHg 57%
10:00 +34°C° 0 mm 5 mps 726 mmHg 51%
11:00 +36°C° 0 mm 5 mps 726 mmHg 46%
12:00 +36°C° 0.1 mm 6 mps 725 mmHg 44%
13:00 +36°C° 0.1 mm 6 mps 725 mmHg 43%
14:00 +36°C° 0.1 mm 6 mps 724 mmHg 41%
15:00 +36°C° 0.1 mm 6 mps 724 mmHg 42%
16:00 +36°C° 0.1 mm 7 mps 724 mmHg 43%
17:00 +35°C° 0.1 mm 7 mps 724 mmHg 44%
18:00 +34°C° 0 mm 7 mps 724 mmHg 48%
19:00 +33°C° 0 mm 7 mps 725 mmHg 52%
20:00 +32°C° 0 mm 8 mps 725 mmHg 57%
21:00 +30°C° 0 mm 7 mps 726 mmHg 60%
22:00 +30°C° 0 mm 7 mps 726 mmHg 62%
23:00 +29°C° 0 mm 6 mps 726 mmHg 65%
Show more

We Need Your Consent

Meteoprog and our Service Providers may store and access personal data such as cookies, device identifiers or other similar technologies on your device and process such data to personalise content and ads, as well as provide social media features and to analyse the traffic.

  • Store and/or access information on your device

    Cookies, device identifiers or other information can be stored or accessed on your device for the purposes indicated above.

  • Personalised ads and content, ad and content measurement, audience insights, and products development

    Ads and content can be personalised based on a profile. More data can be added to better personalise ads and content. Ad and content performance can be measured. Insights about the audience who saw the ads and content can be derived. Such data can be used to develop or improve user’s experience, systems and software.

By clicking ‘I Agree’ you will allow the use of indicated cookies, device identifiers, web beacons or other similar technologies. Your settings can be changed in the browser on your device.

For certain purposes, legitimate interests may be relied on, rather than consent. You can read more about this in our Privacy and Cookie Policy.